User: anonymous   Login
Location: Winthrop
(48.4780°N, 120.1850°W)
Time: 01:43:21
(UTC-07:00)
Language:

UWE-3 - Orbit

View from above orbital plane
View from above orbital plane
View from above satellite
View from above satellite

Ground track
Ground track

The orbit data is extracted from the following two-line orbital elements,

1 39446U 13066AG  22136.14959564  .00001840  00000-0  24379-3 0  9990
2 39446  97.6834 101.6180 0068316 193.3501 166.5906 14.79451366456271
Epoch (UTC): 16 May 2022 03:35:25
Eccentricity: 0.0068316
inclination: 97.6834°
perigee height: 583 km
apogee height: 679 km
right ascension of ascending node: 101.6180°
argument of perigee: 193.3501°
revolutions per day: 14.79451366
mean anomaly at epoch: 166.5906°
orbit number at epoch: 45627

The dashed part of the orbit path shows where the satellite is in the earth's shadow,  

DLR